FW6892 Weather Reports


time (UTC)temp
F
wind
direction
speed
knots
gust
knots
rain 1hr
in
rain 24hr
in
rain mn
in
humidity
%
barometer
mb
20260505153009 68 193 6.1 8.7 0.00 0.00 0.03 68 1003.0
20260505152509 68 252 11.3 11.3 0.00 0.00 0.03 66 1003.0
20260505152007 68 257 3.5 10.4 0.00 0.00 0.03 67 1003.0
20260505151508 67 324 6.1 6.1 0.00 0.00 0.03 68 1003.0
20260505151007 67 205 0.0 4.3 0.00 0.00 0.03 68 1003.0
20260505140508 63 250 1.7 2.6 0.00 0.00 0.03 75 1003.3
20260505125008 56 204 0.0 1.7 0.00 0.00 0.03 82 1004.0
20260505124508 56 211 0.0 3.5 0.00 0.00 0.03 81 1004.4
20260505123009 57 181 2.6 2.6 0.00 0.00 0.03 78 1004.4
20260505122508 58 196 2.6 2.6 0.00 0.00 0.03 77 1004.4
20260505122008 59 138 4.3 5.2 0.00 0.00 0.02 77 1004.4
20260505121508 60 231 3.5 4.3 0.00 0.00 0.02 75 1004.4
20260505121009 60 225 5.2 6.1 0.00 0.00 0.02 73 1004.4
20260505120508 61 275 2.6 7.8 0.00 0.00 0.00 71 1004.4
20260505120009 60 230 5.2 7.0 0.00 0.00 0.00 67 1004.7
20260505115509 60 220 1.7 2.6 0.00 0.00 0.00 66 1004.4
20260505115008 60 273 3.5 5.2 0.00 0.00 0.00 66 1004.4
20260505114508 59 281 4.3 4.3 0.00 0.00 0.00 66 1004.4
20260505114008 59 161 0.9 2.6 0.00 0.00 0.00 66 1004.0
20260505113507 58 230 7.8 7.8 0.00 0.00 0.00 66 1004.0
20260505113008 58 258 0.0 1.7 0.00 0.00 0.00 67 1004.0
20260505112508 58 166 2.6 3.5 0.00 0.00 0.00 66 1004.0
20260505112008 57 183 6.1 6.1 0.00 0.00 0.00 67 1004.0
20260505111508 57 229 0.0 2.6 0.00 0.00 0.00 67 1004.0
20260505111008 57 204 2.6 4.3 0.00 0.00 0.00 67 1004.0
20260505110509 57 177 0.9 3.5 0.00 0.00 0.00 67 1003.7
20260505102008 55 203 0.0 0.0 0.00 0.00 0.00 69 1003.7
20260505101508 55 191 0.0 1.7 0.00 0.00 0.00 69 1003.7
20260505100508 55 185 0.0 2.6 0.00 0.00 0.00 69 1003.7
20260505100008 55 172 2.6 2.6 0.00 0.00 0.00 68 1003.7
20260505095507 55 197 3.5 5.2 0.00 0.00 0.00 68 1004.0
20260505095007 55 252 1.7 4.3 0.00 0.00 0.00 68 1004.0
20260505094507 55 160 0.0 2.6 0.00 0.00 0.00 68 1004.0
20260505094008 55 338 0.0 1.7 0.00 0.00 0.00 69 1004.0
20260505093508 55 178 2.6 5.2 0.00 0.00 0.00 69 1004.0
20260505092508 54 202 2.6 4.3 0.00 0.00 0.00 69 1004.0
20260505092007 54 231 2.6 3.5 0.00 0.00 0.00 69 1004.0
20260505091508 54 179 3.5 3.5 0.00 0.00 0.00 69 1004.0
20260505091008 54 136 0.9 3.5 0.00 0.00 0.00 69 1004.0
20260505090008 54 249 0.0 4.3 0.00 0.00 0.00 68 1004.0
20260505085508 55 235 0.0 2.6 0.00 0.00 0.00 68 1004.0
20260505085008 55 353 0.0 5.2 0.00 0.00 0.00 68 1003.7
20260505084508 55 184 0.9 3.5 0.00 0.00 0.00 68 1004.0
20260505084008 55 167 3.5 5.2 0.00 0.00 0.00 68 1004.0
20260505083508 54 207 0.0 0.0 0.00 0.00 0.00 69 1004.0
20260505083008 54 201 1.7 3.5 0.00 0.00 0.00 69 1004.0
20260505082536 54 196 6.1 6.1 0.00 0.00 0.00 69 1004.0
20260505082008 54 170 1.7 2.6 0.00 0.00 0.00 70 1004.0
20260505081508 54 177 2.6 2.6 0.00 0.00 0.00 70 1004.0
20260505080508 54 222 1.7 3.5 0.00 0.00 0.00 70 1004.0
20260505075508 54 228 2.6 4.3 0.00 0.00 0.00 69 1004.0
20260505075008 54 190 3.5 3.5 0.00 0.00 0.00 69 1004.0
20260505074508 54 304 0.9 2.6 0.00 0.00 0.00 69 1004.0
20260505072008 55 213 2.6 3.5 0.00 0.00 0.00 67 1004.4
20260505071508 55 167 2.6 3.5 0.00 0.00 0.00 67 1004.4
20260505071008 55 195 0.0 1.7 0.00 0.00 0.00 67 1004.4
20260505070508 55 229 0.0 0.0 0.00 0.00 0.00 67 1004.4
20260505070009 55 200 2.6 2.6 0.00 0.00 0.00 67 1004.4
20260505065508 55 204 3.5 3.5 0.00 0.00 0.00 67 1004.4
20260505065008 55 213 0.0 2.6 0.00 0.00 0.00 67 1004.4
20260505064508 55 145 2.6 2.6 0.00 0.00 0.00 67 1004.4
20260505064008 55 210 2.6 3.5 0.00 0.00 0.00 67 1004.4
20260505063508 56 203 0.0 0.9 0.00 0.00 0.00 66 1004.4
20260505063008 56 237 0.0 0.0 0.00 0.00 0.00 66 1004.4
20260505062008 56 219 0.0 0.0 0.00 0.00 0.00 66 1004.4
20260505061508 56 251 0.0 0.0 0.00 0.00 0.00 66 1004.4
20260505061008 56 201 0.0 0.0 0.00 0.00 0.00 67 1004.4
20260505060508 56 216 0.0 0.0 0.00 0.00 0.00 67 1004.4
20260505060007 56 169 0.0 0.0 0.00 0.00 0.00 67 1004.4
20260505055508 56 180 0.0 0.0 0.00 0.00 0.00 67 1004.4
20260505055008 56 173 0.0 0.0 0.00 0.00 0.00 67 1004.7
20260505054508 56 190 0.0 0.0 0.00 0.00 0.00 67 1004.4
20260505054008 56 191 0.0 0.0 0.00 0.00 0.00 67 1004.7
20260505053508 56 203 0.0 0.0 0.00 0.00 0.00 67 1004.7
20260505052509 56 187 0.0 0.0 0.00 0.00 0.00 68 1004.7
20260505052008 55 220 0.0 0.0 0.00 0.00 0.00 69 1005.0
20260505051008 55 231 0.0 0.0 0.00 0.00 0.00 70 1005.0
20260505050507 55 199 0.0 0.0 0.00 0.00 0.00 70 1005.0
20260505041008 55 212 0.0 0.0 0.00 0.00 0.00 71 1005.4
20260505040008 55 258 0.0 0.0 0.00 0.00 0.11 71 1005.4
20260505035508 55 189 0.0 0.0 0.00 0.00 0.11 71 1005.4
20260505034009 55 216 0.0 0.0 0.00 0.00 0.11 71 1005.4
20260505033507 55 182 0.0 0.0 0.00 0.00 0.11 71 1005.4
20260505033008 55 198 0.0 0.0 0.00 0.00 0.11 71 1005.4
20260505032508 56 229 0.0 0.0 0.00 0.00 0.11 71 1005.7
20260505032008 56 194 0.0 0.0 0.00 0.00 0.11 71 1005.4
20260505031508 56 173 0.0 0.0 0.00 0.00 0.11 71 1005.7
20260505030508 56 187 0.0 0.0 0.00 0.00 0.11 70 1005.7
20260505030008 56 233 0.0 0.0 0.00 0.00 0.11 70 1005.7
20260505025508 56 186 0.0 0.0 0.00 0.00 0.11 70 1005.7
20260505024508 56 222 0.0 0.0 0.00 0.00 0.11 70 1005.7
20260505024008 56 185 0.0 0.0 0.00 0.00 0.11 70 1005.7
20260505023508 56 232 0.0 0.0 0.00 0.00 0.11 69 1005.7
20260505023009 56 213 0.0 0.0 0.00 0.00 0.11 69 1006.0
20260505022508 56 202 0.0 0.0 0.00 0.00 0.11 69 1005.7
20260505022008 56 173 0.0 0.0 0.00 0.00 0.11 69 1006.0
20260505021510 56 187 0.0 0.0 0.00 0.00 0.11 69 1006.0
20260505021008 56 193 0.0 0.0 0.00 0.00 0.11 69 1006.0
20260505020508 57 190 0.0 0.0 0.00 0.00 0.11 69 1006.0
20260505020008 57 237 0.0 0.0 0.00 0.00 0.11 69 1006.0
20260505015508 56 183 0.0 0.0 0.00 0.00 0.11 70 1006.0
20260505015008 56 199 0.0 0.0 0.00 0.00 0.11 69 1006.0
20260505014008 57 193 0.0 0.0 0.00 0.00 0.11 69 1006.0
20260505013508 57 183 0.0 0.0 0.00 0.00 0.11 69 1006.4
20260505012508 57 202 0.0 0.0 0.00 0.00 0.11 69 1006.4
20260505012008 58 200 0.0 0.0 0.00 0.00 0.11 68 1006.4
20260505011508 58 209 0.0 0.0 0.00 0.00 0.11 68 1006.4
20260505011008 58 209 0.0 0.0 0.00 0.00 0.11 68 1006.4
20260505010507 58 199 0.0 0.0 0.00 0.00 0.11 68 1006.4
20260505010008 58 198 0.0 0.0 0.00 0.00 0.11 68 1006.4
20260505005009 58 216 0.0 0.0 0.00 0.00 0.11 68 1006.4
20260505004508 58 162 0.0 0.0 0.00 0.00 0.11 67 1006.4
20260505003507 58 176 0.0 0.0 0.00 0.00 0.11 67 1006.0
20260505003008 59 217 0.0 0.0 0.00 0.00 0.11 67 1006.0
20260505002508 59 205 0.0 0.0 0.00 0.00 0.11 67 1006.0
20260505002007 59 177 0.0 3.5 0.00 0.00 0.11 67 1006.0
20260505001508 59 239 0.0 0.0 0.00 0.00 0.11 67 1006.0
20260505001008 59 200 0.0 0.0 0.00 0.00 0.11 68 1006.0
20260505000508 59 193 0.0 0.0 0.00 0.00 0.11 68 1006.0
20260505000011 59 180 0.0 0.0 0.00 0.00 0.11 68 1006.0
20260504235508 59 193 0.0 0.0 0.00 0.00 0.11 68 1006.0
20260504235007 59 160 2.6 2.6 0.00 0.00 0.11 68 1006.0
20260504234508 59 140 0.0 0.0 0.00 0.00 0.11 68 1006.0
20260504234008 59 157 0.0 0.0 0.00 0.00 0.11 68 1006.0
20260504233508 59 160 0.0 0.0 0.00 0.00 0.11 68 1006.0
20260504233008 59 181 0.0 0.0 0.00 0.00 0.11 68 1006.0
20260504232508 59 160 2.6 4.3 0.00 0.00 0.11 68 1006.0
20260504232007 60 187 0.0 0.9 0.00 0.00 0.11 67 1006.0
20260504231008 60 174 0.0 1.7 0.00 0.00 0.11 67 1006.0
20260504230508 60 271 0.0 0.0 0.00 0.00 0.11 66 1006.0
20260504230009 60 157 0.0 0.0 0.00 0.00 0.11 66 1006.0
20260504225508 60 189 0.0 0.0 0.00 0.00 0.11 66 1006.0
20260504225008 60 250 0.0 0.0 0.00 0.00 0.11 65 1006.0
20260504224508 60 129 4.3 4.3 0.00 0.00 0.11 65 1006.0
20260504224008 61 166 2.6 2.6 0.00 0.00 0.11 65 1006.0
20260504223508 61 151 2.6 3.5 0.00 0.00 0.11 65 1006.0
20260504223008 61 318 0.0 0.9 0.00 0.00 0.11 64 1006.0
20260504222508 61 78 1.7 2.6 0.00 0.00 0.11 64 1006.0
20260504222008 62 76 1.7 2.6 0.00 0.00 0.11 63 1006.0
20260504221508 62 57 2.6 4.3 0.00 0.00 0.11 62 1006.4
20260504220507 63 87 1.7 2.6 0.00 0.00 0.11 59 1006.0
20260504220008 63 105 2.6 3.5 0.00 0.00 0.11 59 1006.0
20260504215508 63 112 2.6 2.6 0.00 0.00 0.11 59 1006.0
20260504215007 64 185 2.6 2.6 0.00 0.00 0.11 58 1006.0
20260504214508 64 75 2.6 3.5 0.00 0.00 0.11 58 1006.0
20260504214008 64 34 0.0 1.7 0.00 0.00 0.11 57 1006.0
20260504213508 65 106 0.9 3.5 0.00 0.00 0.11 56 1006.0
20260504213008 66 150 0.0 3.5 0.00 0.00 0.11 54 1006.0
20260504212508 66 315 0.0 0.9 0.00 0.00 0.11 54 1006.0
20260504211008 66 257 0.0 6.1 0.00 0.00 0.11 55 1006.0
20260504210508 66 279 0.0 0.0 0.00 0.00 0.11 54 1006.0
20260504210010 66 177 0.0 0.0 0.00 0.00 0.11 54 1006.0
20260504205508 66 227 0.0 0.9 0.00 0.00 0.11 54 1006.0
20260504205008 67 246 2.6 7.8 0.00 0.00 0.11 55 1006.4
20260504204508 66 160 0.9 5.2 0.00 0.00 0.11 56 1006.4
20260504203508 66 295 4.3 4.3 0.00 0.00 0.11 55 1006.4
20260504203009 66 174 3.5 3.5 0.00 0.00 0.11 56 1006.4
20260504202507 66 273 3.5 5.2 0.00 0.00 0.11 56 1006.4
20260504202008 65 227 0.0 3.5 0.00 0.00 0.11 57 1006.4
20260504201508 65 140 0.0 0.0 0.00 0.00 0.11 56 1006.4
20260504201008 65 255 2.6 5.2 0.00 0.00 0.11 57 1006.4
20260504200508 65 289 0.0 0.0 0.00 0.00 0.11 58 1006.7
20260504200009 65 321 2.6 7.8 0.00 0.00 0.11 57 1006.7
20260504194008 64 316 3.5 3.5 0.00 0.00 0.11 62 1006.7
20260504193507 63 147 0.0 1.7 0.00 0.00 0.11 63 1006.7
20260504193008 62 230 0.0 2.6 0.00 0.00 0.11 64 1007.1
20260504192508 62 308 0.0 2.6 0.00 0.00 0.11 64 1007.1
20260504192008 62 326 5.2 5.2 0.00 0.00 0.11 65 1007.1
20260504191508 61 146 2.6 2.6 0.00 0.00 0.11 64 1007.1
20260504190507 62 268 5.2 7.8 0.00 0.00 0.11 66 1007.4
20260504190008 61 261 5.2 5.2 0.00 0.00 0.11 68 1007.4
20260504185008 59 198 0.0 0.9 0.00 0.00 0.11 68 1007.4
20260504184008 58 247 6.1 7.0 0.00 0.00 0.11 70 1007.7
20260504183008 57 227 0.9 3.5 0.00 0.00 0.11 70 1007.7
20260504181508 57 10 2.6 8.7 0.00 0.00 0.11 69 1007.7
20260504181008 57 334 1.7 4.3 0.00 0.00 0.11 69 1007.7
20260504180507 57 331 3.5 7.8 0.00 0.00 0.11 69 1007.7
20260504180009 57 338 1.7 6.1 0.00 0.00 0.11 70 1007.7
20260504175507 57 354 4.3 6.1 0.00 0.00 0.11 70 1007.7
20260504175007 57 339 3.5 5.2 0.00 0.00 0.11 71 1007.7
20260504174508 57 317 1.7 3.5 0.00 0.00 0.11 71 1008.1
20260504174008 57 280 5.2 6.1 0.00 0.00 0.11 71 1008.1
20260504173508 57 290 3.5 5.2 0.00 0.00 0.11 71 1008.1
20260504173008 57 280 3.5 7.0 0.00 0.00 0.11 72 1008.1
20260504172508 57 331 0.0 2.6 0.00 0.00 0.11 74 1008.1
20260504172008 56 298 2.6 4.3 0.00 0.00 0.11 73 1008.1
20260504171508 56 299 5.2 5.2 0.00 0.00 0.11 73 1008.1
20260504171008 57 232 0.9 2.6 0.00 0.00 0.11 73 1008.1